Location: Cheyres
(46.8153°N, 6.7877°E)
Time: 01:28:24
(UTC+00:00)

CUBEBUG 2 - Pass Details

Date: 07 July 2022
Orbit: 584 x 692 km, 97.7° (Epoch: 16 August)

Event Time Altitude Azimuth Distance (km) Brightness Sun altitude
Rises 02:55:25 0° 9° (N) 2,853 ? -7.5°
Reaches altitude 10° 02:57:35 10° 6° (N) 1,958 ? -7.3°
Maximum altitude 03:01:46 61° 287° (WNW) 702 ? -6.7°
Drops below altitude 10° 03:06:03 10° 207° (SSW) 2,002 ? -6.2°
Enters shadow 03:06:59 - 206° (SSW) 2,382 ? -6.1°
